Location: Kellogg
(38.0159°N, 90.0546°W)
Time: 08:59:54
(UTC+00:00)

Altair - Pass Details

Date: 17 September 2024
Orbit: 1501 x 1682 km, 47.2° (Epoch: 07 October)

Event Time Altitude Azimuth Distance (km) Brightness Sun altitude
Rises 12:54:38 0° 298° (WNW) 4,931 9.6 13.0°
Reaches altitude 10° 12:57:50 10° 301° (WNW) 3,947 9.1 13.6°
Maximum altitude 13:08:02 72° 25° (NNE) 1,751 8.2 15.6°
Drops below altitude 10° 13:18:02 10° 109° (ESE) 3,885 12.0 17.5°
Sets 13:21:10 0° 112° (ESE) 4,850 11.7 18.1°
